Location: La Silve
(44.2414°N, 5.8889°E)
Time: 03:33:09
(UTC+00:00)

Lacrosse 4 Rocket - Pass Details

Date: 01 December 2020
Orbit: 537 x 620 km, 68.0° (Epoch: 24 January)

Event Time Altitude Azimuth Distance (km) Brightness Sun altitude
Rises 17:43:07 0° 176° (S) 2,677 5.0 -18.1°
Reaches altitude 10° 17:45:35 10° 162° (SSE) 1,796 3.9 -18.6°
Enters shadow 17:47:05 18° 144° (SE) 1,381 3.1 -18.8°
